[[{"header":{"parameterUnit":"m.s-1","parameterCategory":2,"la1":30.2991,"la2":30.254,"lo1":-89.0895,"lo2":-89.0444,"dy":0.0017,"dx":0.0017,"nx":28,"ny":28,"refTime":"2025-03-08T09:00:00:Z","depth":"0","parameterNumber":2,"parameterNumberName":"U-component_of_CURRENTS"},"data":[0,0,0,0,0,0,0,0,0,0,0,0,0,0,0,0,0,0,0,0,0,0,0,0,0,0,0,0,0,0,0,0,0,0,0,0,0,0,0,0,0,0,0,0,0,0,0,0,0,0,0,0,0,0,0,0,0,0,-0.3111,-0.3112,0,-0.3215,-0.3216,-0.3217,-0.3208,-0.3206,-0.3205,-0.3203,-0.3314,-0.3318,-0.3323,0,0,0,0,0,0,0,0,0,0,0,0,0,-0.3015,-0.3016,-0.3111,-0.3112,-0.3114,-0.3215,-0.3216,-0.3218,-0.3208,-0.3206,-0.3204,-0.3202,-0.3313,-0.3318,-0.3323,0,0,0,0,0,0,0,0,0,0,0,0,0,-0.3081,-0.3016,-0.3111,-0.3121,-0.3123,-0.3215,-0.3216,-0.3218,-0.3208,-0.3206,-0.3204,-0.3201,-0.3311,-0.3317,-0.3324,-0.3412,0,0,-0.3344,-0.3347,0,0,0,0,0,0,0,0,-0.3077,-0.3084,-0.3118,-0.3121,-0.3123,-0.3196,-0.3223,-0.3284,-0.3209,-0.3176,-0.3203,-0.32,-0.3277,-0.3287,-0.3311,-0.3418,-0.3422,-0.3345,-0.3349,-0.3352,-0.3354,0,0,0,0,0,0,0,-0.3072,-0.3081,-0.3152,-0.312,-0.3123,-0.3159,-0.3164,-0.3235,-0.3238,-0.3178,-0.3178,-0.3191,-0.3278,-0.3305,-0.3313,-0.3424,-0.3345,-0.3351,-0.3355,-0.3357,-0.352,-0.352,0,0,0,0,0,0,-0.3057,-0.3076,-0.3149,-0.3155,-0.3094,-0.3162,-0.3168,-0.3175,-0.3238,-0.3245,-0.3193,-0.319,-0.3294,-0.3306,-0.3317,-0.335,-0.3352,-0.3358,-0.3362,-0.3519,-0.352,-0.352,0,0,0,0,0,0,-0.3055,-0.3063,-0.3144,-0.3118,-0.3131,-0.3165,-0.3173,-0.3178,-0.3193,-0.3248,-0.3255,-0.32,-0.3293,-0.3308,-0.3366,-0.3356,-0.3361,-0.3367,-0.3519,-0.3519,-0.352,-0.3463,0,0,0,0,0,0,-0.3051,-0.3061,-0.3055,-0.3117,-0.3132,-0.3196,-0.3176,-0.3182,-0.3205,-0.3202,-0.3258,-0.3266,-0.3292,-0.3355,-0.3372,-0.3366,-0.3372,-0.3518,-0.3519,-0.352,-0.3465,-0.3462,-0.3459,0,0,0,0,0,-0.3048,-0.3062,-0.3053,-0.3062,-0.3124,-0.3198,-0.3209,-0.3226,-0.3207,-0.3227,-0.3251,-0.3264,-0.337,-0.3362,-0.3382,-0.3376,-0.3518,-0.3519,-0.352,-0.3466,-0.3462,-0.3459,0,0,0,0,0,0,-0.3009,-0.3064,-0.3056,-0.3081,-0.3129,-0.3196,-0.3217,-0.3228,-0.3265,-0.3258,-0.329,-0.3302,-0.334,-0.3379,-0.337,-0.3424,-0.3439,-0.3444,-0.3391,-0.3389,-0.3386,-0.3364,-0.3378,0,0,0,0,0,-0.2999,-0.3023,-0.3079,-0.3094,-0.312,-0.3165,-0.3193,-0.3212,-0.3257,-0.3269,-0.3305,-0.3338,-0.3365,-0.3391,-0.3433,-0.3489,-0.3477,-0.3492,-0.3489,-0.3486,-0.3481,-0.3442,-0.3433,-0.3522,-0.3522,-0.3522,0,0,-0.2986,-0.3019,-0.3029,-0.3088,-0.3124,-0.3173,-0.3176,-0.3229,-0.325,-0.3281,-0.3319,-0.334,-0.3378,-0.3415,-0.3435,-0.3444,-0.3456,-0.3487,-0.3484,-0.3481,-0.3441,-0.3432,-0.3424,-0.3523,-0.3523,-0.3523,0,0,-0.2998,-0.3005,-0.3038,-0.3082,-0.3144,-0.3178,-0.319,-0.326,-0.3267,-0.3325,-0.332,-0.3328,-0.3416,-0.3409,-0.3422,-0.3439,-0.3439,-0.3459,-0.3435,-0.3396,-0.3387,-0.338,-0.3349,-0.3339,-0.3461,-0.346,-0.346,0,-0.2975,-0.3013,-0.306,-0.3109,-0.3132,-0.3177,-0.3214,-0.3249,-0.332,-0.3317,-0.333,-0.3374,-0.3402,-0.3398,-0.3394,-0.3428,-0.3415,-0.344,-0.3388,-0.338,-0.3373,-0.3344,-0.3334,-0.3458,-0.3458,-0.3458,-0.3459,0,-0.3023,-0.3044,-0.3072,-0.3133,-0.3173,-0.3215,-0.3267,-0.3295,-0.3307,-0.3325,-0.3331,-0.336,-0.3372,-0.3378,-0.3398,-0.3361,-0.3371,-0.3381,-0.3386,-0.336,-0.3332,-0.3322,-0.3454,-0.3455,-0.3456,-0.3456,0,0,-0.2977,-0.3081,-0.3083,-0.3095,-0.318,-0.3212,-0.3254,-0.3285,-0.328,-0.3325,-0.3308,-0.333,-0.3321,-0.3334,-0.3341,-0.3314,-0.3248,-0.3331,-0.333,-0.3283,-0.3167,-0.3097,-0.308,-0.3249,-0.3247,-0.3245,-0.3165,0,-0.2983,-0.3052,-0.311,-0.3146,-0.3172,-0.322,-0.3249,-0.328,-0.33,-0.3305,-0.3295,-0.3297,-0.3312,-0.3304,-0.3276,-0.3268,-0.3222,-0.327,-0.3216,-0.3214,-0.314,-0.3066,-0.2927,-0.2836,-0.3155,-0.3154,-0.3153,0,-0.2991,-0.3031,-0.3073,-0.3118,-0.3133,-0.3164,-0.3178,-0.3214,-0.3236,-0.325,-0.3242,-0.3253,-0.3224,-0.3237,-0.3179,-0.3213,-0.3177,-0.3163,-0.3159,-0.3106,-0.3125,-0.2918,-0.2807,-0.2782,-0.3138,-0.3139,-0.314,0,-0.2902,-0.2985,-0.3,-0.3023,-0.3103,-0.3106,-0.3138,-0.3176,-0.3188,-0.32,-0.3206,-0.3189,-0.3175,-0.3138,-0.3126,-0.3145,-0.306,-0.3078,-0.2973,-0.2969,-0.2844,-0.2831,-0.2683,-0.2996,-0.2996,-0.2997,-0.2997,0,-0.2861,-0.2864,-0.2954,-0.2958,-0.2958,-0.3036,-0.3032,-0.3067,-0.3108,-0.3106,-0.3154,-0.3141,-0.3148,-0.312,-0.31,-0.3006,-0.303,-0.294,-0.2927,-0.2823,-0.2809,-0.2781,-0.2822,-0.2994,-0.2994,-0.2995,-0.2995,0,-0.2748,-0.2818,-0.2828,-0.2899,-0.2915,-0.2905,-0.2971,-0.2969,-0.3033,-0.3032,-0.3035,-0.3083,-0.3043,-0.3045,-0.2988,-0.2952,-0.2826,-0.2843,-0.2727,-0.27,-0.2563,-0.2607,-0.2475,-0.2408,-0.269,-0.2688,-0.2686,0,-0.2692,-0.2691,-0.2753,-0.2751,-0.2776,-0.2793,-0.2805,-0.2899,-0.2913,-0.2985,-0.2968,-0.2962,-0.2919,-0.2836,-0.2771,-0.2689,-0.2708,-0.2525,-0.2515,-0.2502,-0.2543,-0.2589,-0.2546,-0.2334,-0.2329,-0.2325,-0.2322,0,-0.2565,-0.2591,-0.26,-0.2606,-0.2614,-0.2631,-0.2664,-0.2673,-0.2778,-0.2789,-0.2791,-0.2765,-0.2712,-0.257,-0.2495,-0.2435,-0.2453,-0.2439,-0.2437,-0.2246,-0.2271,-0.2218,-0.247,-0.2287,-0.2291,-0.2293,-0.2295,-0.2296,-0.2443,-0.2422,-0.244,-0.2425,-0.2443,-0.2434,-0.2393,-0.2458,-0.2454,-0.2449,-0.255,-0.2481,-0.2428,-0.2284,-0.2226,-0.2082,-0.218,-0.2019,-0.2074,-0.2121,-0.2042,-0.2222,-0.2025,-0.2026,-0.2028,-0.203,-0.2031,0,-0.2277,-0.2272,-0.2256,-0.2237,-0.2187,-0.2257,-0.2263,-0.2204,-0.2145,-0.2203,-0.2183,-0.2143,-0.1992,-0.1968,-0.1846,-0.1755,-0.1724,-0.1727,-0.175,-0.1723,-0.186,-0.1829,-0.1564,-0.1564,-0.1564,-0.1564,-0.1564,-0.1564,-0.2188,-0.2114,-0.211,-0.1974,-0.1959,-0.1844,-0.181,-0.1764,-0.177,-0.1707,-0.1722,-0.1791,-0.1791,-0.1864,-0.1709,-0.1614,-0.1594,-0.1532,-0.16,-0.1707,-0.1739,-0.177,-0.1746,-0.1468,-0.1469,-0.137,-0.1369,-0.1369]},{"header":{"parameterUnit":"m.s-1","parameterCategory":2,"la1":30.2991,"la2":30.254,"lo1":-89.0895,"lo2":-89.0444,"dy":0.0017,"dx":0.0017,"nx":28,"ny":28,"refTime":"2025-03-08T09:00:00:Z","depth":"0","parameterNumber":3,"parameterNumberName":"V-component_of_CURRENTS"},"data":[0,0,0,0,0,0,0,0,0,0,0,0,0,0,0,0,0,0,0,0,0,0,0,0,0,0,0,0,0,0,0,0,0,0,0,0,0,0,0,0,0,0,0,0,0,0,0,0,0,0,0,0,0,0,0,0,0,0,-0.0397,-0.0396,0,-0.0299,-0.0298,-0.0296,-0.0215,-0.0214,-0.0213,-0.0213,0.0017,0.0022,0.0027,0,0,0,0,0,0,0,0,0,0,0,0,0,-0.0462,-0.0461,-0.0397,-0.0396,-0.0395,-0.0299,-0.0297,-0.0296,-0.0215,-0.0214,-0.0213,-0.0213,0.0015,0.0021,0.0028,0,0,0,0,0,0,0,0,0,0,0,0,0,-0.0403,-0.0461,-0.0397,-0.0345,-0.034,-0.0299,-0.0297,-0.0295,-0.0215,-0.0214,-0.0213,-0.0212,0.0013,0.0021,0.0029,0.0062,0,0,0.0054,0.0058,0,0,0,0,0,0,0,0,-0.0406,-0.04,-0.0354,-0.0349,-0.0343,-0.0271,-0.0236,-0.017,-0.0215,-0.0259,-0.0213,-0.0212,-0.007,-0.0055,-0.0036,0.0073,0.0083,0.0055,0.006,0.0064,0.0066,0,0,0,0,0,0,0,-0.0411,-0.0404,-0.0355,-0.0353,-0.0346,-0.0309,-0.03,-0.0224,-0.0166,-0.0255,-0.025,-0.0244,-0.0065,-0.0044,-0.003,0.0086,0.0055,0.0062,0.0067,0.0071,0.0256,0.0256,0,0,0,0,0,0,-0.0433,-0.0408,-0.0358,-0.0352,-0.0376,-0.0309,-0.0299,-0.0292,-0.0169,-0.0152,-0.0245,-0.0241,-0.0059,-0.0039,-0.0021,0.0029,0.0064,0.0071,0.0076,0.0256,0.0256,0.0256,0,0,0,0,0,0,-0.0434,-0.0429,-0.0362,-0.038,-0.037,-0.031,-0.0303,-0.0291,-0.0269,-0.0164,-0.0143,-0.0236,-0.0057,-0.0033,0.004,0.0039,0.0075,0.0083,0.0256,0.0256,0.0256,0.0129,0,0,0,0,0,0,-0.0437,-0.043,-0.0433,-0.0382,-0.0369,-0.0348,-0.0303,-0.029,-0.0269,-0.0262,-0.0149,-0.0127,-0.0055,0.0026,0.0048,0.0051,0.0089,0.0256,0.0256,0.0256,0.0133,0.0124,0.0117,0,0,0,0,0,-0.0439,-0.0453,-0.0434,-0.0428,-0.0376,-0.0349,-0.0339,-0.0291,-0.0269,-0.0267,-0.0192,-0.013,0.0041,0.0033,0.0058,0.0064,0.0256,0.0256,0.0256,0.0137,0.0126,0.0117,0,0,0,0,0,0,-0.048,-0.0445,-0.0423,-0.0423,-0.0393,-0.0336,-0.0332,-0.0301,-0.0242,-0.0231,-0.0131,-0.0104,-0.0043,0.0028,0.0016,0.0117,0.0159,0.0164,0.006,0.0051,0.0043,0.0028,0.0096,0,0,0,0,0,-0.0493,-0.0493,-0.0451,-0.0451,-0.0441,-0.0388,-0.0372,-0.0341,-0.0285,-0.0259,-0.0183,-0.0097,-0.0024,0.0025,0.0097,0.0156,0.0211,0.0177,0.0169,0.0161,0.0167,0.0221,0.0218,0.0255,0.0255,0.0255,0,0,-0.0509,-0.049,-0.0489,-0.046,-0.0431,-0.0424,-0.0375,-0.036,-0.0343,-0.0241,-0.0194,-0.0125,-0.0018,0.004,0.0076,0.0102,0.0179,0.0161,0.0154,0.0164,0.022,0.0217,0.0213,0.0255,0.0255,0.0255,0,0,-0.055,-0.0525,-0.0542,-0.0521,-0.0491,-0.0457,-0.0458,-0.0407,-0.0374,-0.0326,-0.0252,-0.0189,-0.0073,-0.0003,0.005,0.0045,0.0126,0.0071,0.003,0.0081,0.0078,0.0076,0.0132,0.0136,0.0076,0.0075,0.0075,0,-0.0572,-0.0581,-0.0543,-0.0551,-0.0539,-0.0478,-0.0489,-0.0447,-0.0378,-0.0348,-0.0324,-0.0174,-0.0092,-0.0012,-0.0016,0.0027,0.0069,0.0052,0.0068,0.0067,0.0068,0.0126,0.0131,0.0069,0.007,0.0071,0.0071,0,-0.0624,-0.0626,-0.0635,-0.0621,-0.0603,-0.0603,-0.0547,-0.052,-0.0474,-0.0424,-0.0349,-0.0249,-0.0157,-0.0126,-0.0067,-0.0021,0.0011,0.0038,0.0083,0.0056,0.0119,0.0127,0.006,0.0063,0.0064,0.0066,0,0,-0.0686,-0.0675,-0.0677,-0.068,-0.064,-0.0632,-0.0604,-0.0558,-0.0536,-0.0462,-0.0423,-0.0311,-0.0261,-0.0198,-0.0122,-0.007,-0.004,-0.0023,-0.0017,0.0016,0.0074,0.0129,0.0144,-0.0019,-0.0018,-0.0018,0.0113,0,-0.0737,-0.0773,-0.0746,-0.0765,-0.0775,-0.0711,-0.0689,-0.0635,-0.0573,-0.052,-0.0413,-0.0346,-0.0285,-0.0247,-0.0191,-0.0073,-0.0022,-0.0078,0.0112,0.0118,0.0156,0.0155,0.0197,0.032,0.0122,0.0124,0.0125,0,-0.0798,-0.0812,-0.0847,-0.0833,-0.0831,-0.0827,-0.0779,-0.0751,-0.0654,-0.0604,-0.0522,-0.0435,-0.0333,-0.0291,-0.0115,-0.0157,-0.0054,0.0032,0.004,0.0145,0.0189,0.0321,0.0344,0.0511,0.0139,0.0138,0.0137,0,-0.0867,-0.088,-0.091,-0.0906,-0.0881,-0.0877,-0.0856,-0.0779,-0.0752,-0.0656,-0.0622,-0.0492,-0.0421,-0.0287,-0.0101,-0.0112,0.0091,0.0101,0.025,0.0255,0.036,0.0373,0.0557,0.0215,0.0214,0.0214,0.0214,0,-0.0932,-0.0953,-0.0947,-0.0963,-0.099,-0.0945,-0.0949,-0.0902,-0.0834,-0.0802,-0.0675,-0.0613,-0.0421,-0.0274,-0.0118,0.0102,0.0082,0.0251,0.0295,0.0317,0.0324,0.0532,0.0594,0.0219,0.0218,0.0217,0.0216,0,-0.0997,-0.0994,-0.103,-0.1025,-0.1026,-0.1044,-0.1023,-0.1018,-0.0943,-0.0897,-0.0869,-0.07,-0.0502,-0.0291,-0.0051,0.0086,0.0401,0.0369,0.0386,0.043,0.0706,0.0758,0.0995,0.1094,0.0545,0.0547,0.0549,0,-0.1032,-0.106,-0.1086,-0.1113,-0.1115,-0.1131,-0.114,-0.1082,-0.1067,-0.094,-0.0919,-0.0723,-0.0559,-0.0178,0.0099,0.0393,0.0516,0.0594,0.0582,0.074,0.0831,0.0862,0.0929,0.0672,0.0675,0.0677,0.0678,0,-0.109,-0.1099,-0.1126,-0.119,-0.1218,-0.1244,-0.1246,-0.1252,-0.1169,-0.1096,-0.0959,-0.0815,-0.0441,-0.0082,0.0295,0.0475,0.0722,0.0647,0.0815,0.0954,0.0999,0.1108,0.0566,0.0698,0.0696,0.0695,0.0694,0.0693,-0.1123,-0.1161,-0.12,-0.1255,-0.1297,-0.1334,-0.1341,-0.1315,-0.1266,-0.1122,-0.0992,-0.072,-0.0228,0.032,0.0522,0.0956,0.0905,0.1083,0.1136,0.1155,0.1247,0.0748,0.0922,0.0921,0.0921,0.092,0.092,0,-0.1153,-0.1194,-0.1259,-0.1319,-0.1371,-0.1375,-0.1387,-0.1351,-0.1274,-0.1101,-0.0918,-0.035,0.0146,0.06,0.1192,0.1429,0.1475,0.1546,0.1606,0.1653,0.1229,0.1231,0.1476,0.1476,0.1476,0.1476,0.1476,0.1475,-0.117,-0.123,-0.1264,-0.1352,-0.1397,-0.1422,-0.142,-0.1336,-0.1199,-0.086,-0.0527,-0.0267,0.0377,0.1283,0.1821,0.1877,0.2071,0.2058,0.2156,0.1866,0.1826,0.1788,0.1808,0.217,0.2171,0.2569,0.2573,0.2576]}],[{"header":{"parameterUnit":"m.s-1","parameterCategory":2,"la1":30.2991,"la2":30.254,"lo1":-89.0895,"lo2":-89.0444,"dy":0.0017,"dx":0.0017,"nx":28,"ny":28,"refTime":"2025-03-08T09:00:00:Z","depth":"2","parameterNumber":2,"parameterNumberName":"U-component_of_CURRENTS"},"data":[0,0,0,0,0,0,0,0,0,0,0,0,0,0,0,0,0,0,0,0,0,0,0,0,0,0,0,0,0,0,0,0,0,0,0,0,0,0,0,0,0,0,0,0,0,0,0,0,0,0,0,0,0,0,0,0,0,0,-0.2671,-0.2672,0,-0.2736,-0.2737,-0.2737,-0.2724,-0.2723,-0.2722,-0.2721,-0.2742,-0.2743,-0.2745,0,0,0,0,0,0,0,0,0,0,0,0,0,-0.2575,-0.2576,-0.2671,-0.2672,-0.2673,-0.2736,-0.2737,-0.2737,-0.2724,-0.2723,-0.2721,-0.272,-0.2741,-0.2743,-0.2745,0,0,0,0,0,0,0,0,0,0,0,0,0,-0.2624,-0.2577,-0.2671,-0.2675,-0.2677,-0.2736,-0.2737,-0.2738,-0.2724,-0.2723,-0.2721,-0.272,-0.2741,-0.2743,-0.2745,-0.279,0,0,-0.2752,-0.2753,0,0,0,0,0,0,0,0,-0.2621,-0.2627,-0.2674,-0.2675,-0.2677,-0.2722,-0.2711,-0.2754,-0.2725,-0.2704,-0.2721,-0.2719,-0.2734,-0.2736,-0.275,-0.2791,-0.2792,-0.2752,-0.2754,-0.2755,-0.2755,0,0,0,0,0,0,0,-0.2618,-0.2625,-0.2695,-0.2675,-0.2677,-0.2688,-0.2692,-0.2719,-0.2724,-0.2706,-0.2705,-0.2716,-0.2733,-0.2748,-0.275,-0.2792,-0.2752,-0.2754,-0.2756,-0.2757,-0.2864,-0.2866,0,0,0,0,0,0,-0.2614,-0.2622,-0.2693,-0.2697,-0.2647,-0.2691,-0.2696,-0.2707,-0.2725,-0.2727,-0.2718,-0.2715,-0.2745,-0.2747,-0.2751,-0.2781,-0.2755,-0.2757,-0.2758,-0.2863,-0.2865,-0.2866,0,0,0,0,0,0,-0.2611,-0.2619,-0.269,-0.2662,-0.2672,-0.2694,-0.2707,-0.271,-0.2721,-0.2735,-0.2735,-0.2726,-0.2743,-0.2748,-0.278,-0.2782,-0.2758,-0.276,-0.2861,-0.2863,-0.2865,-0.2857,0,0,0,0,0,0,-0.2608,-0.2618,-0.2621,-0.2662,-0.2674,-0.2727,-0.2709,-0.2712,-0.2731,-0.2729,-0.2743,-0.2743,-0.2743,-0.2777,-0.2782,-0.2785,-0.2762,-0.2859,-0.2862,-0.2865,-0.2855,-0.2859,-0.2862,0,0,0,0,0,-0.2605,-0.2622,-0.2621,-0.2629,-0.2678,-0.2728,-0.2735,-0.2744,-0.2733,-0.2746,-0.2757,-0.2742,-0.2798,-0.278,-0.2786,-0.279,-0.2858,-0.2861,-0.2865,-0.2854,-0.2858,-0.2861,0,0,0,0,0,0,-0.2577,-0.2623,-0.2623,-0.265,-0.2685,-0.2726,-0.2741,-0.275,-0.277,-0.2766,-0.2767,-0.277,-0.2796,-0.2808,-0.2788,-0.2833,-0.2824,-0.2829,-0.2814,-0.2818,-0.2821,-0.2805,-0.2763,0,0,0,0,0,-0.2575,-0.2597,-0.2642,-0.266,-0.2681,-0.2711,-0.273,-0.2743,-0.277,-0.2777,-0.2788,-0.2803,-0.2819,-0.2828,-0.2849,-0.2881,-0.2862,-0.2889,-0.2892,-0.2894,-0.2888,-0.2864,-0.2862,-0.2877,-0.2877,-0.2877,0,0,-0.2567,-0.2596,-0.2606,-0.2656,-0.2681,-0.2718,-0.2718,-0.2757,-0.2777,-0.2778,-0.2805,-0.2816,-0.2832,-0.2859,-0.2872,-0.2866,-0.2882,-0.2898,-0.2899,-0.2892,-0.2867,-0.2865,-0.2863,-0.288,-0.2879,-0.2879,0,0,-0.2576,-0.2593,-0.2618,-0.2653,-0.2701,-0.2725,-0.2737,-0.2786,-0.2794,-0.2835,-0.283,-0.2842,-0.2885,-0.2883,-0.2889,-0.2928,-0.2899,-0.2941,-0.294,-0.2917,-0.2914,-0.2912,-0.2883,-0.2878,-0.2942,-0.2942,-0.2942,0,-0.2562,-0.2597,-0.2633,-0.2671,-0.2693,-0.2728,-0.2758,-0.2786,-0.2835,-0.2838,-0.2843,-0.288,-0.289,-0.2899,-0.2911,-0.2929,-0.2913,-0.2918,-0.2916,-0.2913,-0.2911,-0.2882,-0.2877,-0.2942,-0.2942,-0.2942,-0.2942,0,-0.2594,-0.2619,-0.2641,-0.2692,-0.2725,-0.2759,-0.2804,-0.283,-0.2845,-0.2861,-0.2881,-0.2899,-0.291,-0.2921,-0.2929,-0.2922,-0.2915,-0.2918,-0.2895,-0.2908,-0.2878,-0.2872,-0.2942,-0.2942,-0.2942,-0.2942,0,0,-0.2558,-0.2644,-0.2647,-0.2663,-0.2735,-0.276,-0.2804,-0.2838,-0.2846,-0.2884,-0.2886,-0.2914,-0.2911,-0.2919,-0.2925,-0.2912,-0.288,-0.291,-0.2909,-0.2861,-0.2822,-0.2745,-0.2731,-0.2878,-0.2877,-0.2877,-0.2807,0,-0.2561,-0.2617,-0.2667,-0.2704,-0.2728,-0.2776,-0.2808,-0.2844,-0.2869,-0.2885,-0.2892,-0.2903,-0.2914,-0.2915,-0.2904,-0.2895,-0.2866,-0.2898,-0.2836,-0.2834,-0.2745,-0.2722,-0.2519,-0.2434,-0.2801,-0.28,-0.2799,0,-0.2561,-0.2598,-0.2637,-0.2689,-0.2705,-0.2735,-0.277,-0.2807,-0.2844,-0.2864,-0.2876,-0.2888,-0.2886,-0.2889,-0.2855,-0.2877,-0.2844,-0.283,-0.2826,-0.275,-0.2745,-0.2484,-0.2409,-0.279,-0.279,-0.2791,-0.2792,0,-0.2488,-0.2564,-0.2584,-0.2607,-0.2685,-0.2699,-0.2735,-0.2784,-0.2806,-0.284,-0.2854,-0.2861,-0.2859,-0.2833,-0.2819,-0.2831,-0.2772,-0.2781,-0.2673,-0.2667,-0.2479,-0.2457,-0.2726,-0.2726,-0.2726,-0.2726,-0.2727,0,-0.2452,-0.2462,-0.2548,-0.2556,-0.257,-0.2645,-0.2661,-0.2703,-0.2757,-0.2767,-0.2824,-0.2823,-0.2844,-0.2825,-0.2804,-0.2718,-0.2752,-0.2654,-0.2636,-0.2473,-0.2453,-0.2756,-0.2761,-0.2724,-0.2724,-0.2725,-0.2725,0,-0.2354,-0.2419,-0.2437,-0.2513,-0.2533,-0.2536,-0.2612,-0.2624,-0.2697,-0.2712,-0.2722,-0.2783,-0.2753,-0.276,-0.2717,-0.268,-0.2621,-0.2576,-0.2386,-0.2345,-0.2534,-0.254,-0.2436,-0.2432,-0.2429,-0.2427,-0.2425,0,-0.2305,-0.2308,-0.2377,-0.2383,-0.2412,-0.2444,-0.2464,-0.2564,-0.2587,-0.2671,-0.2662,-0.2672,-0.2632,-0.2563,-0.2497,-0.2416,-0.2517,-0.2197,-0.2177,-0.2507,-0.2501,-0.2511,-0.252,-0.1925,-0.1919,-0.1914,-0.191,0,-0.2194,-0.2223,-0.224,-0.2259,-0.2278,-0.2303,-0.2347,-0.236,-0.2469,-0.2487,-0.2495,-0.2473,-0.2424,-0.2252,-0.2179,-0.2114,-0.2201,-0.2094,-0.246,-0.2043,-0.2023,-0.2019,-0.2044,-0.1866,-0.1871,-0.1874,-0.1876,-0.1878,-0.209,-0.2078,-0.2105,-0.2105,-0.2133,-0.213,-0.2098,-0.2161,-0.2164,-0.2159,-0.2255,-0.2161,-0.215,-0.1917,-0.1818,-0.1751,-0.1903,-0.1823,-0.1838,-0.1859,-0.1825,-0.1803,-0.1598,-0.16,-0.1603,-0.1605,-0.1607,0,-0.1947,-0.1951,-0.1948,-0.1943,-0.1909,-0.1977,-0.1987,-0.193,-0.1874,-0.1905,-0.188,-0.1683,-0.1557,-0.1558,-0.1375,-0.1345,-0.1338,-0.1295,-0.1285,-0.1328,-0.1367,-0.131,-0.0944,-0.0942,-0.094,-0.0939,0,0,-0.187,-0.1815,-0.1815,-0.171,-0.1707,-0.161,-0.1578,-0.1524,-0.1509,-0.1411,-0.1366,-0.147,-0.1502,-0.1229,-0.116,-0.102,-0.1165,-0.0965,-0.1492,-0.1522,-0.1558,-0.1661,-0.162,0,0,0,0,0]},{"header":{"parameterUnit":"m.s-1","parameterCategory":2,"la1":30.2991,"la2":30.254,"lo1":-89.0895,"lo2":-89.0444,"dy":0.0017,"dx":0.0017,"nx":28,"ny":28,"refTime":"2025-03-08T09:00:00:Z","depth":"2","parameterNumber":3,"parameterNumberName":"V-component_of_CURRENTS"},"data":[0,0,0,0,0,0,0,0,0,0,0,0,0,0,0,0,0,0,0,0,0,0,0,0,0,0,0,0,0,0,0,0,0,0,0,0,0,0,0,0,0,0,0,0,0,0,0,0,0,0,0,0,0,0,0,0,0,0,-0.0307,-0.0306,0,-0.023,-0.0229,-0.0228,-0.0157,-0.0157,-0.0156,-0.0155,0.0017,0.0021,0.0025,0,0,0,0,0,0,0,0,0,0,0,0,0,-0.0349,-0.0349,-0.0307,-0.0306,-0.0305,-0.023,-0.0229,-0.0228,-0.0157,-0.0157,-0.0156,-0.0155,0.0016,0.0021,0.0025,0,0,0,0,0,0,0,0,0,0,0,0,0,-0.0305,-0.0349,-0.0307,-0.0263,-0.0258,-0.0231,-0.0229,-0.0227,-0.0158,-0.0157,-0.0156,-0.0155,0.0014,0.002,0.0026,0.0044,0,0,0.0044,0.0047,0,0,0,0,0,0,0,0,-0.0308,-0.0304,-0.027,-0.0266,-0.0261,-0.0204,-0.0181,-0.0133,-0.0158,-0.0193,-0.0155,-0.0154,-0.005,-0.0039,-0.0025,0.0052,0.0059,0.0045,0.0049,0.0051,0.0053,0,0,0,0,0,0,0,-0.0311,-0.0306,-0.0274,-0.027,-0.0264,-0.0232,-0.0225,-0.0171,-0.0125,-0.019,-0.0185,-0.0181,-0.0046,-0.0031,-0.002,0.0062,0.0045,0.005,0.0054,0.0056,0.0187,0.0187,0,0,0,0,0,0,-0.0329,-0.031,-0.0277,-0.0272,-0.0285,-0.0233,-0.0225,-0.0222,-0.0127,-0.0113,-0.0182,-0.0178,-0.0041,-0.0027,-0.0013,0.0023,0.0051,0.0057,0.006,0.0187,0.0187,0.0186,0,0,0,0,0,0,-0.033,-0.0327,-0.028,-0.0291,-0.0283,-0.0234,-0.023,-0.0221,-0.0204,-0.0122,-0.0106,-0.0176,-0.004,-0.0022,0.0029,0.003,0.0059,0.0065,0.0187,0.0187,0.0187,0.009,0,0,0,0,0,0,-0.0332,-0.0328,-0.0332,-0.0292,-0.0283,-0.0273,-0.0231,-0.022,-0.0204,-0.0198,-0.0111,-0.0095,-0.0038,0.002,0.0035,0.0039,0.007,0.0187,0.0187,0.0187,0.0093,0.0086,0.008,0,0,0,0,0,-0.0333,-0.035,-0.0333,-0.0329,-0.0291,-0.0274,-0.0267,-0.0226,-0.0205,-0.0206,-0.0146,-0.0097,0.003,0.0024,0.0042,0.0048,0.0187,0.0187,0.0187,0.0096,0.0088,0.0081,0,0,0,0,0,0,-0.037,-0.0343,-0.0324,-0.033,-0.0308,-0.0263,-0.0262,-0.0235,-0.0191,-0.0181,-0.0101,-0.0081,-0.0037,0.0017,0.0009,0.0085,0.0118,0.0121,0.0043,0.0036,0.0029,0.0019,0.0075,0,0,0,0,0,-0.0382,-0.0385,-0.0353,-0.0357,-0.035,-0.0307,-0.0296,-0.0271,-0.0227,-0.0207,-0.0148,-0.0081,-0.0025,0.0013,0.0066,0.0108,0.0159,0.0125,0.0119,0.0113,0.0117,0.018,0.018,0.0186,0.0186,0.0186,0,0,-0.0397,-0.0383,-0.0384,-0.0365,-0.0343,-0.0341,-0.0297,-0.0289,-0.0277,-0.0194,-0.0161,-0.0107,-0.0022,0.0021,0.0048,0.007,0.0137,0.0113,0.0107,0.0115,0.018,0.0179,0.0179,0.0185,0.0185,0.0185,0,0,-0.0437,-0.0418,-0.0436,-0.0422,-0.04,-0.0372,-0.0375,-0.0336,-0.0308,-0.0276,-0.0212,-0.0159,-0.0077,-0.0014,0.0029,0.0022,0.0092,0.0039,0.001,0.007,0.007,0.0071,0.0123,0.0129,0.0045,0.0045,0.0045,0,-0.0457,-0.047,-0.0439,-0.0451,-0.0442,-0.0392,-0.0405,-0.0373,-0.0321,-0.0293,-0.0277,-0.0154,-0.009,-0.0019,-0.0022,0.0009,0.0049,0.0028,0.0061,0.0063,0.0065,0.0119,0.0127,0.004,0.0041,0.0041,0.0042,0,-0.0509,-0.0514,-0.0524,-0.0518,-0.0506,-0.051,-0.0464,-0.0444,-0.0406,-0.0362,-0.0298,-0.0217,-0.0139,-0.0113,-0.0067,-0.0016,0.0008,0.0034,0.0074,0.0058,0.0116,0.0126,0.0033,0.0035,0.0037,0.0038,0,0,-0.0565,-0.0562,-0.0565,-0.0568,-0.054,-0.0537,-0.0516,-0.0477,-0.0455,-0.0396,-0.0357,-0.0265,-0.0219,-0.0167,-0.0101,-0.0045,-0.0001,-0.0006,-0.0,0.0036,0.0125,0.0154,0.0169,0.0025,0.0027,0.0028,0.0155,0,-0.0613,-0.0651,-0.063,-0.0651,-0.0663,-0.0609,-0.0592,-0.0546,-0.0492,-0.0443,-0.0345,-0.0287,-0.0238,-0.0203,-0.0142,-0.0035,0.0023,-0.0038,0.0146,0.0151,0.0171,0.0181,0.0151,0.0263,0.0165,0.0167,0.0168,0,-0.0671,-0.0685,-0.0721,-0.071,-0.0709,-0.071,-0.0666,-0.0645,-0.0556,-0.051,-0.0433,-0.0356,-0.0257,-0.0221,-0.0048,-0.0093,0.0006,0.0088,0.0095,0.0166,0.02,0.0268,0.0285,0.0186,0.0184,0.0183,0.0182,0,-0.0728,-0.0745,-0.0774,-0.0773,-0.0755,-0.0753,-0.0736,-0.0667,-0.0642,-0.0551,-0.0518,-0.0392,-0.0328,-0.0193,-0.0026,-0.0037,0.0163,0.0174,0.0297,0.03,0.0336,0.034,0.0296,0.0296,0.0296,0.0296,0.0295,0,-0.0786,-0.0807,-0.0806,-0.0823,-0.0848,-0.0811,-0.0813,-0.0772,-0.0709,-0.0676,-0.0561,-0.0501,-0.032,-0.0181,-0.0036,0.0164,0.0161,0.03,0.034,0.03,0.0299,0.0284,0.0281,0.03,0.0299,0.0298,0.0298,0,-0.0841,-0.0842,-0.0877,-0.0876,-0.0879,-0.0897,-0.088,-0.0874,-0.0805,-0.076,-0.0733,-0.0577,-0.0395,-0.02,0.0031,0.0153,0.0342,0.0415,0.0352,0.0383,0.0438,0.0429,0.0559,0.0561,0.0563,0.0565,0.0566,0,-0.0872,-0.0898,-0.0927,-0.0954,-0.0958,-0.0975,-0.0984,-0.0932,-0.0916,-0.0797,-0.0776,-0.0597,-0.045,-0.0102,0.014,0.0406,0.0407,0.0528,0.0508,0.0442,0.0468,0.0455,0.0444,0.0516,0.0516,0.0517,0.0517,0,-0.0922,-0.0933,-0.096,-0.1023,-0.1051,-0.1076,-0.1079,-0.1082,-0.1006,-0.0937,-0.081,-0.0682,-0.0355,-0.0068,0.0263,0.0416,0.048,0.055,0.052,0.0446,0.041,0.0432,0.042,0.0523,0.0523,0.0522,0.0522,0.0522,-0.0952,-0.0987,-0.1028,-0.1081,-0.1122,-0.1157,-0.1165,-0.1139,-0.1094,-0.0961,-0.0845,-0.0609,-0.0354,0.0129,0.0357,0.057,0.0563,0.0622,0.0616,0.0611,0.0576,0.0544,0.0676,0.0676,0.0677,0.0677,0.0677,0,-0.0979,-0.102,-0.1081,-0.1141,-0.119,-0.1197,-0.1207,-0.1173,-0.1102,-0.095,-0.0787,-0.0471,-0.0147,0.0126,0.0465,0.0659,0.0637,0.0689,0.0619,0.0612,0.0607,0.0567,0.0668,0.0669,0.0669,0.067,0,0,-0.0996,-0.1054,-0.1086,-0.1171,-0.1217,-0.1245,-0.1244,-0.1165,-0.1043,-0.0867,-0.068,-0.0448,-0.0124,0.0113,0.0348,0.0522,0.0518,0.0539,0.0526,0.0409,0.0402,0.055,0.0481,0,0,0,0,0]}],[{"header":{"parameterUnit":"m.s-1","parameterCategory":2,"la1":30.2991,"la2":30.254,"lo1":-89.0895,"lo2":-89.0444,"dy":0.0017,"dx":0.0017,"nx":28,"ny":28,"refTime":"2025-03-08T09:00:00:Z","depth":"4","parameterNumber":2,"parameterNumberName":"U-component_of_CURRENTS"},"data":[0,0,0,0,0,0,0,0,0,0,0,0,0,0,0,0,0,0,0,0,0,0,0,0,0,0,0,0,0,0,0,0,0,0,0,0,0,0,0,0,0,0,0,0,0,0,0,0,0,0,0,0,0,0,0,0,0,0,-0.1856,-0.1857,0,-0.1933,-0.1934,-0.1935,-0.1976,-0.1976,-0.1976,-0.1977,-0.2027,-0.2028,-0.2029,0,0,0,0,0,0,0,0,0,0,0,0,0,-0.1743,-0.1745,-0.1856,-0.1857,-0.1858,-0.1933,-0.1934,-0.1935,-0.1976,-0.1976,-0.1976,-0.1977,-0.2027,-0.2028,-0.2029,0,0,0,0,0,0,0,0,0,0,0,0,0,-0.1801,-0.1745,-0.1856,-0.1889,-0.1893,-0.1933,-0.1934,-0.1935,-0.1976,-0.1976,-0.1976,-0.1977,-0.2026,-0.2028,-0.203,-0.2031,0,0,-0.2035,-0.2035,0,0,0,0,0,0,0,0,-0.1798,-0.1805,-0.1883,-0.1887,-0.1892,-0.1947,-0.1913,-0.1967,-0.1975,-0.1942,-0.1977,-0.1977,-0.1999,-0.2003,-0.2014,-0.2034,-0.2036,-0.2035,-0.2036,-0.2036,-0.2037,0,0,0,0,0,0,0,-0.1794,-0.1802,-0.1884,-0.1884,-0.189,-0.19,-0.1909,-0.1923,-0.1965,-0.1945,-0.1949,-0.1961,-0.2001,-0.2012,-0.2015,-0.2037,-0.2035,-0.2036,-0.2037,-0.2038,-0.2154,-0.2156,0,0,0,0,0,0,-0.1788,-0.1798,-0.1882,-0.1887,-0.1847,-0.1902,-0.1912,-0.1927,-0.1966,-0.1973,-0.196,-0.1962,-0.2009,-0.2013,-0.2017,-0.2091,-0.2036,-0.2038,-0.2039,-0.2152,-0.2155,-0.2157,0,0,0,0,0,0,-0.1786,-0.1795,-0.1879,-0.1846,-0.1857,-0.1904,-0.1921,-0.1929,-0.197,-0.1978,-0.1984,-0.1998,-0.201,-0.2015,-0.2065,-0.2091,-0.2039,-0.204,-0.215,-0.2153,-0.2156,-0.2195,0,0,0,0,0,0,-0.1782,-0.1794,-0.1817,-0.1846,-0.1859,-0.1921,-0.1921,-0.193,-0.1976,-0.198,-0.2011,-0.2015,-0.201,-0.2062,-0.2066,-0.2092,-0.2041,-0.2147,-0.2151,-0.2155,-0.2191,-0.2199,-0.2205,0,0,0,0,0,-0.1778,-0.1803,-0.1817,-0.1828,-0.1885,-0.1922,-0.1931,-0.1963,-0.1978,-0.2001,-0.203,-0.2015,-0.209,-0.2066,-0.207,-0.2096,-0.2145,-0.215,-0.2155,-0.2187,-0.2197,-0.2205,0,0,0,0,0,0,-0.1768,-0.1811,-0.1827,-0.1865,-0.1901,-0.1931,-0.1961,-0.1982,-0.2024,-0.2038,-0.2041,-0.2047,-0.2099,-0.2101,-0.2073,-0.2145,-0.2116,-0.2122,-0.2139,-0.2149,-0.2156,-0.2144,-0.2043,0,0,0,0,0,-0.1775,-0.1806,-0.1845,-0.1878,-0.19,-0.1937,-0.1962,-0.1987,-0.2021,-0.2042,-0.2065,-0.2094,-0.2117,-0.2136,-0.2157,-0.2196,-0.2174,-0.2219,-0.2227,-0.2233,-0.2229,-0.2224,-0.223,-0.2173,-0.2173,-0.2173,0,0,-0.1781,-0.1809,-0.1828,-0.1879,-0.191,-0.1946,-0.1954,-0.2004,-0.2037,-0.2039,-0.2102,-0.2122,-0.2135,-0.218,-0.2203,-0.2187,-0.224,-0.2239,-0.2244,-0.2236,-0.223,-0.2235,-0.2239,-0.2176,-0.2175,-0.2175,0,0,-0.1796,-0.1835,-0.1863,-0.1897,-0.1952,-0.1975,-0.1997,-0.2048,-0.2079,-0.2137,-0.2146,-0.2185,-0.223,-0.224,-0.2249,-0.2312,-0.2278,-0.2329,-0.2356,-0.2352,-0.2356,-0.2359,-0.2335,-0.2335,-0.2333,-0.2333,-0.2333,0,-0.1804,-0.1841,-0.1878,-0.1913,-0.1945,-0.1991,-0.2027,-0.2064,-0.2128,-0.2151,-0.2166,-0.2237,-0.2253,-0.2288,-0.2315,-0.2326,-0.2313,-0.2315,-0.2358,-0.2361,-0.2363,-0.2338,-0.2337,-0.2336,-0.2335,-0.2335,-0.2335,0,-0.1828,-0.1872,-0.1895,-0.1951,-0.199,-0.2032,-0.2084,-0.2133,-0.2177,-0.2205,-0.2267,-0.2296,-0.233,-0.235,-0.2354,-0.2387,-0.2369,-0.2364,-0.2325,-0.237,-0.2342,-0.2341,-0.2339,-0.2338,-0.2338,-0.2337,0,0,-0.1803,-0.1893,-0.1905,-0.1935,-0.2015,-0.2044,-0.2111,-0.2166,-0.2204,-0.2269,-0.2308,-0.2363,-0.2379,-0.2391,-0.2404,-0.2412,-0.2422,-0.2403,-0.2402,-0.2361,-0.2402,-0.2246,-0.223,-0.2425,-0.2425,-0.2426,-0.2373,0,-0.1811,-0.1873,-0.1922,-0.1985,-0.2017,-0.2084,-0.2136,-0.2196,-0.2249,-0.23,-0.2337,-0.2381,-0.2394,-0.2418,-0.2429,-0.2429,-0.2423,-0.2435,-0.238,-0.2378,-0.2219,-0.2224,-0.2427,-0.2372,-0.2372,-0.2371,-0.2371,0,-0.1805,-0.185,-0.1913,-0.1994,-0.2017,-0.2067,-0.2149,-0.2201,-0.2278,-0.2321,-0.237,-0.2398,-0.2435,-0.2436,-0.2441,-0.2451,-0.2429,-0.242,-0.2417,-0.2253,-0.2219,-0.2321,-0.2369,-0.2369,-0.2369,-0.237,-0.237,0,-0.1739,-0.1836,-0.1884,-0.1915,-0.2018,-0.2064,-0.2122,-0.2207,-0.2249,-0.2331,-0.2364,-0.2412,-0.2437,-0.2433,-0.2427,-0.2437,-0.2411,-0.2414,-0.2246,-0.2235,-0.2373,-0.2371,-0.2394,-0.2394,-0.2395,-0.2395,-0.2395,0,-0.17,-0.1741,-0.1863,-0.1886,-0.1944,-0.2032,-0.2097,-0.2162,-0.2249,-0.2279,-0.2366,-0.238,-0.244,-0.2436,-0.2423,-0.2319,-0.2401,-0.2234,-0.2205,-0.2393,-0.2393,-0.2372,-0.237,-0.2393,-0.2393,-0.2394,-0.2394,0,-0.1607,-0.1693,-0.175,-0.1873,-0.1912,-0.1952,-0.2074,-0.2109,-0.2211,-0.2252,-0.2278,-0.2359,-0.2342,-0.2366,-0.2352,-0.2285,-0.2223,-0.2164,-0.2351,-0.2336,-0.205,-0.2052,-0.1958,-0.1952,-0.1947,-0.1942,-0.1939,0,-0.1558,-0.1582,-0.1717,-0.1753,-0.1813,-0.1895,-0.1942,-0.2069,-0.2102,-0.221,-0.2204,-0.2237,-0.2265,-0.2109,-0.2164,-0.2096,-0.2077,-0.2035,-0.2049,-0.2021,-0.2004,-0.2013,-0.2021,-0.1931,-0.1929,-0.1928,-0.1927,0,-0.1457,-0.1525,-0.1574,-0.1649,-0.1713,-0.1769,-0.1849,-0.1857,-0.1981,-0.2098,-0.2059,-0.2036,-0.2006,-0.1985,-0.1943,-0.1906,-0.2061,-0.1981,-0.1991,-0.2005,-0.1987,-0.1977,-0.1991,-0.1909,-0.1911,-0.1913,-0.1914,0,-0.1379,-0.1393,-0.1471,-0.1517,-0.1595,-0.1608,-0.1674,-0.1703,-0.1749,-0.1877,-0.1855,-0.1895,-0.1973,-0.1883,-0.1851,-0.1794,-0.1768,-0.172,-0.1744,-0.1764,-0.1726,-0.1677,-0.146,0,0,0,0,0,-0.129,-0.1291,-0.1329,-0.1374,-0.1447,-0.1485,-0.159,-0.1661,-0.1785,-0.1701,-0.1772,-0.1733,-0.1675,-0.1707,-0.1602,-0.1761,-0.1777,-0.1634,-0.1737,-0.181,-0.1831,-0.1805,0,0,0,0,0,0,-0.123,-0.1264,-0.1277,-0.124,-0.1241,-0.1298,-0.1355,-0.1444,-0.1413,-0.1544,-0.1516,-0.162,-0.1586,-0.169,-0.156,-0.1568,-0.1596,-0.1675,-0.167,-0.1798,-0.1817,-0.1834,-0.1815,0,0,0,0,0]},{"header":{"parameterUnit":"m.s-1","parameterCategory":2,"la1":30.2991,"la2":30.254,"lo1":-89.0895,"lo2":-89.0444,"dy":0.0017,"dx":0.0017,"nx":28,"ny":28,"refTime":"2025-03-08T09:00:00:Z","depth":"4","parameterNumber":3,"parameterNumberName":"V-component_of_CURRENTS"},"data":[0,0,0,0,0,0,0,0,0,0,0,0,0,0,0,0,0,0,0,0,0,0,0,0,0,0,0,0,0,0,0,0,0,0,0,0,0,0,0,0,0,0,0,0,0,0,0,0,0,0,0,0,0,0,0,0,0,0,-0.0225,-0.0225,0,-0.0182,-0.0182,-0.0181,-0.0134,-0.0134,-0.0133,-0.0132,-0.0022,-0.0019,-0.0017,0,0,0,0,0,0,0,0,0,0,0,0,0,-0.0238,-0.0238,-0.0225,-0.0225,-0.0224,-0.0183,-0.0182,-0.0181,-0.0134,-0.0134,-0.0133,-0.0132,-0.0023,-0.002,-0.0017,0,0,0,0,0,0,0,0,0,0,0,0,0,-0.0216,-0.0238,-0.0225,-0.0197,-0.0194,-0.0183,-0.0182,-0.0181,-0.0134,-0.0133,-0.0133,-0.0132,-0.0024,-0.002,-0.0016,-0.001,0,0,-0.0005,-0.0004,0,0,0,0,0,0,0,0,-0.0218,-0.0216,-0.0202,-0.0199,-0.0196,-0.0164,-0.0146,-0.0121,-0.0134,-0.0155,-0.0132,-0.0132,-0.0065,-0.0058,-0.005,-0.0005,0.0,-0.0005,-0.0003,-0.0001,0.0,0,0,0,0,0,0,0,-0.0219,-0.0217,-0.0206,-0.0201,-0.0198,-0.0177,-0.0173,-0.0141,-0.0113,-0.0153,-0.015,-0.0148,-0.0062,-0.0054,-0.0047,0.0002,-0.0005,-0.0002,0.0001,0.0002,0.0077,0.0077,0,0,0,0,0,0,-0.023,-0.0219,-0.0208,-0.0205,-0.0207,-0.0178,-0.0173,-0.0174,-0.0114,-0.0105,-0.0149,-0.0146,-0.006,-0.0051,-0.0043,-0.0024,-0.0001,0.0002,0.0005,0.0078,0.0077,0.0077,0,0,0,0,0,0,-0.0231,-0.023,-0.021,-0.0212,-0.0208,-0.0179,-0.0179,-0.0173,-0.0166,-0.0112,-0.0101,-0.0148,-0.0059,-0.0048,-0.0019,-0.0019,0.0004,0.0007,0.0078,0.0077,0.0077,0.001,0,0,0,0,0,0,-0.0231,-0.023,-0.0237,-0.0213,-0.0209,-0.0212,-0.018,-0.0173,-0.0167,-0.0163,-0.0108,-0.0097,-0.0058,-0.0025,-0.0016,-0.0014,0.001,0.0078,0.0078,0.0077,0.0013,0.0007,0.0003,0,0,0,0,0,-0.0232,-0.0248,-0.0237,-0.0236,-0.0218,-0.0213,-0.0209,-0.0183,-0.0168,-0.0172,-0.0133,-0.0098,-0.002,-0.0023,-0.0012,-0.0008,0.0078,0.0078,0.0077,0.0015,0.0008,0.0003,0,0,0,0,0,0,-0.0257,-0.0244,-0.0232,-0.0243,-0.0232,-0.0206,-0.0209,-0.0191,-0.0166,-0.0159,-0.0105,-0.0092,-0.0067,-0.0031,-0.0035,0.0013,0.0036,0.0038,-0.0015,-0.002,-0.0025,-0.0031,0.0013,0,0,0,0,0,-0.0267,-0.0275,-0.0257,-0.0266,-0.0263,-0.0238,-0.0233,-0.0217,-0.0191,-0.0179,-0.0142,-0.0098,-0.0061,-0.0036,-0.0004,0.0021,0.0066,0.0032,0.0028,0.0023,0.0027,0.009,0.0092,0.0076,0.0076,0.0076,0,0,-0.028,-0.0274,-0.0278,-0.0272,-0.026,-0.0265,-0.0232,-0.0233,-0.0229,-0.0171,-0.0156,-0.0119,-0.0061,-0.0035,-0.0019,-0.0002,0.0049,0.0023,0.0019,0.0025,0.009,0.0092,0.0093,0.0075,0.0075,0.0075,0,0,-0.0312,-0.0304,-0.0322,-0.0316,-0.0308,-0.0292,-0.0296,-0.0275,-0.0258,-0.0243,-0.0197,-0.0159,-0.0112,-0.0063,-0.0032,-0.0041,0.0015,-0.0034,-0.0052,0.0009,0.0011,0.0013,0.006,0.0068,-0.0028,-0.0028,-0.0028,0,-0.0328,-0.0344,-0.0326,-0.0341,-0.0339,-0.0308,-0.0323,-0.0304,-0.0276,-0.0256,-0.0248,-0.0164,-0.0121,-0.0065,-0.007,-0.005,-0.0014,-0.0038,0.0003,0.0006,0.001,0.0058,0.0067,-0.0031,-0.0031,-0.003,-0.003,0,-0.0371,-0.0382,-0.0393,-0.0397,-0.0394,-0.0403,-0.0377,-0.0368,-0.0345,-0.0315,-0.027,-0.0212,-0.0156,-0.0137,-0.0107,-0.0058,-0.004,-0.0019,0.0015,0.0007,0.0059,0.0069,-0.0036,-0.0035,-0.0034,-0.0033,0,0,-0.0409,-0.0421,-0.0425,-0.0433,-0.0423,-0.0426,-0.042,-0.0396,-0.0382,-0.0345,-0.0314,-0.025,-0.0212,-0.0175,-0.0125,-0.007,-0.002,-0.0041,-0.0036,0.0002,0.0105,0.0082,0.0092,0.0007,0.0008,0.001,0.0126,0,-0.0447,-0.0486,-0.0477,-0.0505,-0.0519,-0.0487,-0.0482,-0.0453,-0.0417,-0.0382,-0.0304,-0.0261,-0.0227,-0.02,-0.0141,-0.0052,0.0006,-0.0054,0.0111,0.0116,0.0093,0.0103,0.0015,0.0134,0.0137,0.0139,0.014,0,-0.049,-0.0508,-0.0547,-0.0551,-0.0553,-0.0565,-0.0541,-0.0531,-0.0466,-0.0433,-0.0371,-0.0311,-0.0226,-0.0199,-0.0044,-0.0086,0.0001,0.0073,0.008,0.0092,0.0112,0.0149,0.016,0.0158,0.0157,0.0155,0.0154,0,-0.0524,-0.0553,-0.0585,-0.0589,-0.0592,-0.0599,-0.0595,-0.0549,-0.0534,-0.0463,-0.0437,-0.033,-0.0278,-0.0155,-0.0018,-0.0027,0.0154,0.0166,0.0233,0.0233,0.0248,0.0245,0.0284,0.0284,0.0283,0.0283,0.0283,0,-0.0559,-0.0585,-0.0609,-0.0627,-0.0659,-0.0642,-0.0655,-0.063,-0.0586,-0.0561,-0.047,-0.042,-0.0265,-0.0146,-0.002,0.0132,0.0158,0.0234,0.0265,0.0215,0.0207,0.0255,0.025,0.0287,0.0287,0.0286,0.0285,0,-0.0586,-0.0604,-0.0645,-0.0668,-0.068,-0.0703,-0.0712,-0.0711,-0.0664,-0.0628,-0.0607,-0.0481,-0.033,-0.0168,0.0039,0.0121,0.0278,0.0331,0.0259,0.0284,0.0316,0.0307,0.0413,0.0413,0.0413,0.0413,0.0414,0,-0.0601,-0.0628,-0.0684,-0.0717,-0.0735,-0.0767,-0.0785,-0.0757,-0.0745,-0.0657,-0.0635,-0.0495,-0.0395,-0.0116,0.0042,0.0278,0.0309,0.0381,0.0352,0.0312,0.0332,0.0322,0.0312,0.0414,0.0414,0.0414,0.0414,0,-0.0623,-0.0651,-0.0685,-0.076,-0.0802,-0.0836,-0.0854,-0.085,-0.08,-0.0763,-0.0634,-0.0486,-0.0319,-0.0117,0.0061,0.0231,0.0325,0.0383,0.0384,0.0358,0.0315,0.0332,0.0322,0.0415,0.0415,0.0415,0.0415,0,-0.0638,-0.0672,-0.0728,-0.0786,-0.0848,-0.0881,-0.0889,-0.0854,-0.0828,-0.072,-0.068,-0.0485,-0.0372,-0.014,0.0031,0.0184,0.0218,0.0259,0.0267,0.0268,0.0181,0.0102,0.0169,0,0,0,0,0,-0.0643,-0.0683,-0.0747,-0.081,-0.0872,-0.0901,-0.0919,-0.091,-0.0865,-0.0776,-0.072,-0.0553,-0.0295,-0.018,-0.0028,0.0012,0.0223,0.019,0.0268,0.0419,0.0418,0.0337,0,0,0,0,0,0,-0.0649,-0.071,-0.0743,-0.0813,-0.0859,-0.0915,-0.0928,-0.0901,-0.0834,-0.0768,-0.0624,-0.0531,-0.0279,-0.0378,-0.0028,0.0018,0.0083,0.0318,0.0321,0.0419,0.0418,0.0418,0.0335,0,0,0,0,0]}]]